Погода в Алейске

Погода в Алейске : погода сейчас, прогноз погоды и архив. Всё, что Вы хотите узнать о погоде в Алейске!

Хотите узнать прогноз погоды в Алейске? Тогда Вам сюда: Погода в Алейске

Поиск расширенной информации на нашем сайте:

Другие новости

Новости СМИ2

Главная страница сайта

Новости сайта

03.07.2017

Напоминаем, что на нашем специализированном сайте Метеоцентр.Азия вы можете получить высокодетализированные автоматические прогнозы погоды по пунктам России, СНГ и мира в авиационном формате (включающие направление и скорость ветра, видимость, явления погоды, количество и форму облачности, нижнюю и верхнюю границу облачности).

Рекомендуем: овощи доставка стоимость

Погода в Алейске - сегодня

Время (UTC), дата Ветер
(°,м/с) 
Видим.   Явления Облачность Т
(°С)
Тd
(°С)
f(%) Тe
(°С)
Pmin
(гПа)
dP
(гПа)
Po
(мм)
O2
(г/м3)
Тmin Tmax R s Состояние
почвы
00 16.04.18 180 (Ю) 20000 м    3/0 верхняя 
[Ci fib]
-2.2 -4.8 82 -2  1011.7  -1  742  302  -2.3         
03 16.04.18 190 (Ю) 20000 м    10/0 верхняя 
[Cs]
+4.6 -4 54 +3  1010.1  -1  741  294           
06 16.04.18 170 (Ю) 20000 м    10/0 верхняя 
[Cs]
+8.1 -4 42 +7  1008.1  -1.7  740  290           
12 16.04.18 190 (Ю) 4{11}  20000 м    8/3 1000 м средняя, верхняя 
[Cu hum|Ac cast|Ci fib]
+11.7 -2 38 +11  1006.8  739  286    +12.7       
15 16.04.18 190 (Ю) 20000 м    3/0 средняя 
[Ac As]
+7 +2.5 73 +6  1008.5  1.3  740  290           
18 16.04.18 190 (Ю) 4{11}  20000 м    10/10 600 м 
[Sc]
+7.3 +1.6 67 +6  1008.9  0.4  741  290           
00 17.04.18 210 (ЮЗ) 20000 м    9/9 1000 м 
[Sc]
+5 -2.3 59 +6  1012.4  1.4  743  294  +5         
03 17.04.18 230 (ЮЗ) 20000 м    10/8 600 м средняя 
[Sc|Ac As]
+5.3 -1.6 61 +5  1013.3  744  294  +4.4         
12 17.04.18 270 (З) 3{10}  20000 м  {ливн. осадки}  8/8 600 м 
[Sc]
+6 -6.9 39 +5  1016.3  0.8  746  295    +7.3  0.0     
15 17.04.18 260 (З) 20000 м    6/6 600 м 
[Sc]
+2.5 -7.5 48 +2  1017.8  1.2  747  299           
18 17.04.18 330 (СЗ) 20000 м    8/8 600 м 
[Sc]
+1.3 -10.7 40 1019.4  1.4  748  301           
21 17.04.18 350 (С) 20000 м    4/4 600 м 
[Sc]
-0.6 -10.5 47 1020.8  1.2  749  303           
00 18.04.18 340 (С) 20000 м    4/4 600 м 
[Sc]
-1.5 -9.7 54 -1  1021.7  0.9  750  305  -1.7         
03 18.04.18 010 (С) 20000 м    8/3 600 м верхняя 
[Sc|Cs]
+1.3 -13.9 31 +1  1022  0.5  750  302           
06 18.04.18 340 (С) 20000 м    8/0 верхняя 
[Cs]
+3.4 -13.1 29 +3  1021.4  -0.5  750  299           
09 18.04.18 010 (С) 20000 м    6/0 верхняя 
[Cs]
+4.9 -13 26 +5  1020.6  -0.6  749  298           
12 18.04.18 310 (СЗ) 20000 м    3/1 1000 м верхняя 
[Sc|Cs]
+3.9 -13.2 27 +3  1020.8  0.1  749  299    +5.2       
15 18.04.18 290 (З) 20000 м    ясно 
+0.3 -10.8 43 1022.8  1.7  751  303           
18 18.04.18 260 (З) 20000 м    ясно 
-1.8 -9.6 55 -1  1023.3  0.3  751  305           
21 18.04.18 тихо ()   20000 м    ясно 
-4.7 -8.2 76 -5  1023.1  -0.4  750  309           
00 19.04.18 тихо ()   4000 м  дымка  5/0 верхняя 
[Cc]
-4.3 -6.9 82 -4  1022.1  -0.9  750  308  -5.6         
03 19.04.18 040 (СВ) 10 км    10/10 600 м 
[Sc]
+1.8 -7.5 50 +1  1020  -1.6  749  300           
06 19.04.18 060 (СВ) 10 км    10/8 600 м средняя 
[Sc|Ac As]
+2.8 -9.7 39 +1  1017.5  -2.4  747  299           
12 19.04.18 070 (В) 3{10}  10 км    10/10 600 м 
[Sc]
+1.9 -1.7 77 1015.7  745  298    +4.8       
15 19.04.18 070 (В) 4000 м  слаб. ливневой снег  10/10 600 м кучево-дожд. 
[Cb cap]
+0.9 -1.8 82 +2  1017.7  1.8  747  300           
Время (UTC), дата Ветер
(°,м/с) 
Видим.   Явления Облачность Т
(°С)
Тd
(°С)
f(%) Тe
(°С)
Pmin
(гПа)
dP
(гПа)
Po
(мм)
O2
(г/м3)
Тmin Tmax R s Состояние
почвы

Для получения пояснительной информации подведите курсор к названию столбца.

ПОГОДА в Алейске - архив

Всё, что Вы хотите узнать о погоде в Алейске - удобно и подробно!

Выберите нужную дату (начиная с 1 января 2015* года) и нажмите кнопку "Найти".
Будут отображены архивные сводки погоды по пункту Алейск, начиная с указанной даты.


Отображать данные в формате CSV (для использования в таблицах Excel)


Внимание! Наш архив погоды предназначен исключительно для личного некоммерческого использования в познавательных целях. Если Вам необходимы официальные справки о состоянии погоды (для производственных, юридических, коммерческих и т.п. целей), обращайтесь в органы Росгидромета.

*Примечание: данная дата относится к архиву по метеостанциям СССР (Россия, СНГ, Балтия).
Архив по метеостанциям Зарубежной Европы и Азии (кроме Китая) хранится 10 дней, по другим регионам земного шара (Китай, Африка, Америка, Австралия, Океания) - 1 день.

Алейск - район местоположения метеостанции


Название, широта, долгота, высота метеостанции:
Алейск 52.6°ш. 82.8°д. 175 м над ур. моря [Российская Федерация]

Дополнительная информация

В oтличие oт бoльшинства пoгoдных сайтoв мы публикуем пoдрoбную метеoинфoрмацию в детальнoм прoфессиoнальнoм фoрмате.

Характеристики температуры и влажнoсти вoздуха измеряются на высoте 2 м в тени вдали oт зданий и деревьев.
Скoрoсть ветра измеряется на высoте 10 м (на урoвне рoста челoвека скoрoсть ветра ниже в 1.5-2 раза). Если метеoстанция нахoдится в гoрoде или в лесу, тo скoрoсть ветра занижена на 2-4 м/с пo сравнению с oткрытым местoм. Скoрoсть ветра над акватoриями крупных рек и oзёр, а также на вершинах хoлмoв на 2-5 м/с выше, чем в oбычных услoвиях.
Атмoсфернoе давление в разных тoчках местнoсти мoжет значительнo oтличаться oт давления на метеoстанции, в зависимoсти oт услoвий рельефа (при пoдъёме на 10 м давление пoнижается примернo на 1 мм рт.ст.).